TimeEST,TemperatureF,Dew PointF,Humidity,Sea Level PressureIn,VisibilityMPH,Wind Direction,Wind SpeedMPH,Gust SpeedMPH,PrecipitationIn,Events,Conditions,WindDirDegrees,DateUTC
12:14 AM,8.6,-0.8,66,30.25,10.0,WSW,3.5,-,N/A,,Overcast,240,2013-01-23 05:14:00
12:34 AM,8.6,-0.4,67,30.25,10.0,WSW,3.5,-,N/A,,Overcast,250,2013-01-23 05:34:00
12:54 AM,9.1,-0.0,66,30.25,10.0,WSW,4.6,-,N/A,,Overcast,250,2013-01-23 05:54:00
1:14 AM,8.6,-0.4,67,30.24,10.0,WSW,4.6,-,N/A,,Overcast,250,2013-01-23 06:14:00
1:34 AM,7.7,-1.3,67,30.24,10.0,WSW,4.6,-,N/A,,Mostly Cloudy,240,2013-01-23 06:34:00
1:54 AM,6.6,-2.0,68,30.24,10.0,SW,4.6,-,N/A,,Scattered Clouds,230,2013-01-23 06:54:00
2:14 AM,5.9,-2.0,70,30.24,10.0,SW,4.6,-,N/A,,Clear,220,2013-01-23 07:14:00
2:34 AM,6.1,-1.5,71,30.24,10.0,WSW,4.6,-,N/A,,Clear,240,2013-01-23 07:34:00
2:54 AM,6.3,-1.3,71,30.24,10.0,Calm,Calm,-,N/A,,Clear,0,2013-01-23 07:54:00
3:14 AM,6.3,-1.7,70,30.24,10.0,Calm,Calm,-,N/A,,Clear,0,2013-01-23 08:14:00
3:34 AM,5.5,-1.7,72,30.24,10.0,SSW,3.5,-,N/A,,Scattered Clouds,210,2013-01-23 08:34:00
3:54 AM,4.1,-2.2,75,30.24,10.0,South,5.8,-,N/A,,Scattered Clouds,180,2013-01-23 08:54:00
4:14 AM,6.8,-0.4,72,30.23,10.0,South,5.8,-,N/A,,Mostly Cloudy,190,2013-01-23 09:14:00
4:34 AM,7.9,0.5,72,30.22,10.0,South,3.5,-,N/A,,Overcast,190,2013-01-23 09:34:00
4:54 AM,8.6,0.9,71,30.22,10.0,SW,5.8,-,N/A,,Overcast,220,2013-01-23 09:54:00
5:14 AM,9.1,1.0,70,30.22,10.0,SSW,5.8,-,N/A,,Overcast,210,2013-01-23 10:14:00
5:34 AM,9.5,1.2,69,30.21,10.0,SSW,5.8,-,N/A,,Overcast,210,2013-01-23 10:34:00
5:54 AM,9.9,0.9,67,30.20,10.0,South,5.8,-,N/A,,Overcast,190,2013-01-23 10:54:00
6:14 AM,9.9,0.1,65,30.20,10.0,SSW,6.9,-,N/A,,Overcast,210,2013-01-23 11:14:00
6:34 AM,10.0,0.3,65,30.20,10.0,SSW,4.6,-,N/A,,Overcast,200,2013-01-23 11:34:00
6:54 AM,10.2,0.3,64,30.19,10.0,SSW,5.8,-,N/A,,Overcast,210,2013-01-23 11:54:00
7:14 AM,10.4,0.3,64,30.20,10.0,SSW,6.9,-,N/A,,Overcast,200,2013-01-23 12:14:00
7:34 AM,10.4,1.4,67,30.19,10.0,SSW,5.8,-,N/A,,Overcast,200,2013-01-23 12:34:00
7:54 AM,10.4,0.9,65,30.19,10.0,SSW,8.1,-,N/A,,Overcast,200,2013-01-23 12:54:00
8:14 AM,10.2,0.5,65,30.18,10.0,SSW,8.1,-,N/A,Snow,Light Snow,200,2013-01-23 13:14:00
8:34 AM,10.0,-0.4,63,30.18,10.0,South,4.6,-,N/A,,Mostly Cloudy,180,2013-01-23 13:34:00
8:54 AM,10.2,-0.8,61,30.18,10.0,South,5.8,-,N/A,,Mostly Cloudy,170,2013-01-23 13:54:00
9:14 AM,10.4,-0.0,63,30.18,7.0,South,4.6,-,N/A,Snow,Light Snow,180,2013-01-23 14:14:00
9:34 AM,10.9,0.9,64,30.17,7.0,South,6.9,-,N/A,Snow,Light Snow,170,2013-01-23 14:34:00
9:54 AM,11.7,2.3,66,30.17,10.0,South,6.9,-,N/A,Snow,Light Snow,190,2013-01-23 14:54:00
10:14 AM,12.2,3.9,69,30.17,1.8,SSW,8.1,-,N/A,Snow,Light Snow,200,2013-01-23 15:14:00
10:34 AM,13.1,5.0,70,30.17,3.0,SSW,9.2,-,N/A,Snow,Light Snow,200,2013-01-23 15:34:00
10:54 AM,14.2,6.1,70,30.17,5.0,SW,5.8,-,N/A,Snow,Light Snow,220,2013-01-23 15:54:00
11:14 AM,15.3,7.0,70,30.16,5.0,SW,8.1,-,N/A,Snow,Light Snow,230,2013-01-23 16:14:00
11:34 AM,16.2,7.9,70,30.15,4.0,WSW,8.1,-,N/A,,Haze,240,2013-01-23 16:34:00
11:54 AM,17.2,8.6,69,30.15,4.0,WSW,8.1,-,N/A,,Haze,250,2013-01-23 16:54:00
12:14 PM,17.8,9.3,69,30.14,2.5,WSW,9.2,-,N/A,Snow,Light Snow,240,2013-01-23 17:14:00
12:34 PM,18.7,10.4,70,30.12,2.0,WSW,12.7,-,N/A,Snow,Light Snow,240,2013-01-23 17:34:00
12:54 PM,19.4,11.1,70,30.11,2.0,WSW,12.7,-,N/A,Snow,Light Snow,240,2013-01-23 17:54:00
1:14 PM,19.9,11.3,69,30.10,2.5,WSW,11.5,-,N/A,Snow,Light Snow,250,2013-01-23 18:14:00
1:34 PM,19.9,11.7,70,30.09,2.0,WSW,10.4,-,N/A,Snow,Light Snow,240,2013-01-23 18:34:00
1:54 PM,20.1,12.2,71,30.07,1.8,SW,12.7,-,N/A,Snow,Light Snow,220,2013-01-23 18:54:00
2:14 PM,19.9,11.5,70,30.07,1.8,SW,11.5,-,N/A,Snow,Light Snow,230,2013-01-23 19:14:00
2:34 PM,20.3,11.7,69,30.06,2.5,SW,12.7,-,N/A,Snow,Light Snow,230,2013-01-23 19:34:00
2:54 PM,20.3,10.8,67,30.05,4.0,SW,12.7,-,N/A,,Haze,230,2013-01-23 19:54:00
3:14 PM,20.1,11.1,68,30.05,5.0,SW,11.5,-,N/A,Snow,Light Snow,230,2013-01-23 20:14:00
3:34 PM,20.3,11.1,68,30.04,5.0,SW,11.5,-,N/A,,Haze,220,2013-01-23 20:34:00
3:54 PM,20.3,11.5,69,30.04,3.0,SW,9.2,-,N/A,Snow,Light Snow,230,2013-01-23 20:54:00
4:14 PM,20.3,11.7,69,30.04,5.0,SW,9.2,-,N/A,,Haze,230,2013-01-23 21:14:00
4:34 PM,20.1,11.8,70,30.04,4.0,SW,9.2,-,N/A,Snow,Light Snow,220,2013-01-23 21:34:00
4:54 PM,19.4,11.1,70,30.03,3.0,SW,11.5,-,N/A,Snow,Light Snow,220,2013-01-23 21:54:00
5:14 PM,19.4,12.7,75,30.03,1.2,SW,9.2,-,N/A,Snow,Light Snow,220,2013-01-23 22:14:00
5:34 PM,19.2,12.4,75,30.03,1.8,SSW,8.1,-,N/A,Snow,Light Snow,210,2013-01-23 22:34:00
5:54 PM,19.2,12.9,76,30.03,1.0,SW,6.9,-,N/A,Snow,Light Snow,220,2013-01-23 22:54:00
6:14 PM,19.2,13.3,78,30.03,1.2,SSW,8.1,-,N/A,Snow,Light Snow,210,2013-01-23 23:14:00
6:34 PM,18.9,12.9,78,30.03,1.5,SSW,8.1,-,N/A,Snow,Light Snow,210,2013-01-23 23:34:00
6:54 PM,18.7,12.9,78,30.03,1.2,SSW,5.8,-,N/A,Snow,Light Snow,210,2013-01-23 23:54:00
7:14 PM,18.5,12.9,79,30.03,0.8,SSW,6.9,-,N/A,Snow,Snow,210,2013-01-24 00:14:00
7:34 PM,18.5,13.1,79,30.03,0.8,SSW,4.6,-,N/A,Snow,Snow,210,2013-01-24 00:34:00
7:54 PM,18.5,12.9,79,30.03,1.2,SSW,5.8,-,N/A,Snow,Light Snow,210,2013-01-24 00:54:00
8:14 PM,18.5,13.1,79,30.04,1.0,WNW,4.6,-,N/A,Snow,Snow,300,2013-01-24 01:14:00
8:34 PM,19.0,13.1,78,30.04,2.0,WNW,5.8,-,N/A,Snow,Light Snow,300,2013-01-24 01:34:00
8:54 PM,19.2,13.1,77,30.05,2.5,NW,5.8,-,N/A,Snow,Light Snow,320,2013-01-24 01:54:00
9:14 PM,19.0,13.1,78,30.05,2.5,NW,5.8,-,N/A,Snow,Light Snow,320,2013-01-24 02:14:00
9:34 PM,18.9,12.4,76,30.07,2.5,NNW,5.8,-,N/A,Snow,Light Snow,340,2013-01-24 02:34:00
9:53 PM,18.7,12.9,78,30.08,2.0,NNW,6.9,-,N/A,Snow,Light Snow,330,2013-01-24 02:53:00
10:14 PM,18.5,10.4,71,30.08,5.0,NW,8.1,-,N/A,Snow,Light Snow,320,2013-01-24 03:14:00
10:33 PM,17.6,8.8,68,30.09,10.0,NNW,10.4,-,N/A,,Overcast,330,2013-01-24 03:33:00
11:13 PM,16.0,8.2,72,30.11,10.0,NNW,5.8,-,N/A,,Scattered Clouds,340,2013-01-24 04:13:00
11:34 PM,14.7,8.1,75,30.12,10.0,NW,5.8,-,N/A,,Clear,320,2013-01-24 04:34:00
11:53 PM,14.0,7.5,75,30.13,10.0,NNW,6.9,-,N/A,,Clear,330,2013-01-24 04:53:00